Wind_Speed
38 39 39 40 40 41 41 42 42 42 42 42 43 43 44 44 44 44 44 43 43 43 43 43 43 43 42 42 41 41 40 40 40 40 39 39 39 38 37 36 35 34 34
40 41 41 41 42 42 43 43 44 44 44 44 45 45 46 46 47 47 47 47 46 46 46 46 45 45 45 45 44 43 42 42 42 41 41 41 40 40 40 38 37 36 36
40 41 42 42 43 43 43 44 45 46 46 47 47 48 48 48 48 49 49 49 49 49 49 48 48 48 48 48 47 46 45 44 44 44 44 43 43 42 42 41 39 39 38
41 42 42 43 44 45 45 45 46 47 47 48 49 50 51 51 51 51 51 51 51 51 51 51 51 51 51 50 50 49 48 48 46 46 47 46 45 44 43 43 42 41 41
42 43 44 45 45 46 47 48 48 48 49 49 50 51 52 52 52 53 53 53 53 53 53 53 53 53 53 53 52 51 51 50 49 48 49 49 48 47 45 45 44 43 43
42 44 45 46 47 48 49 49 49 49 50 50 50 50 51 52 53 53 53 54 55 55 55 55 55 55 54 54 53 53 53 52 52 51 51 51 51 49 47 47 46 46 44
43 44 46 47 47 48 49 49 49 49 49 49 49 50 50 52 53 54 54 54 54 55 55 55 55 55 54 55 55 55 54 54 54 54 54 53 52 51 50 49 48 47 46
42 43 45 45 46 46 47 48 49 49 49 51 52 53 52 53 54 54 55 55 55 55 56 55 55 55 55 55 56 56 55 56 56 56 55 54 53 52 52 51 50 49 48
42 42 43 43 44 46 46 47 49 50 50 51 52 53 54 54 54 54 54 55 55 56 57 55 55 55 55 56 58 57 57 57 57 57 56 55 54 54 53 52 52 50 49
41 42 43 43 44 45 46 47 48 50 51 51 52 53 54 54 55 54 54 55 56 56 56 56 56 56 55 57 58 59 59 59 58 58 57 55 55 55 54 54 53 52 52
41 42 43 43 44 45 45 46 47 49 51 52 52 53 54 56 56 56 55 55 55 56 57 57 57 57 56 57 58 58 59 60 60 60 59 56 56 55 54 55 55 54 53
41 42 43 44 45 46 46 46 47 49 50 51 52 53 54 56 57 57 56 55 55 55 57 57 57 58 58 56 56 57 58 59 60 60 60 58 57 57 56 56 56 55 54
42 43 43 45 45 45 46 47 48 49 50 52 53 54 55 56 56 56 56 56 56 56 57 56 55 56 56 55 54 55 56 57 59 59 59 59 58 57 56 56 56 56 56
43 44 45 45 45 46 47 47 48 50 51 53 54 54 54 53 54 55 56 56 56 55 54 54 54 54 54 53 53 54 54 56 57 58 59 59 59 58 57 57 57 56 57
43 44 45 46 47 47 48 48 49 50 51 52 53 53 53 52 53 53 54 55 55 53 51 51 52 53 54 54 52 52 53 54 54 56 57 58 58 58 58 57 56 56 56
44 45 45 46 47 47 47 48 49 50 51 52 52 52 52 52 52 53 53 53 53 52 49 48 49 50 51 51 50 48 49 50 51 52 55 56 55 56 55 54 54 55 55
45 46 46 46 46 46 47 48 49 51 52 52 51 51 51 52 52 52 51 51 50 49 47 45 45 46 47 47 47 46 46 47 49 49 51 52 52 51 51 51 52 53 53
44 45 45 45 45 46 47 48 49 50 50 50 50 50 50 51 50 49 49 49 48 46 46 43 42 43 44 44 44 42 42 43 45 46 48 48 47 48 48 49 49 50 50
43 44 44 45 45 46 47 48 49 48 48 49 50 50 50 49 48 47 47 46 46 44 44 42 41 41 41 41 40 39 39 40 40 40 41 43 43 44 46 47 47 47 47
42 43 44 44 45 46 46 47 47 47 47 48 49 49 48 46 45 44 44 43 43 42 41 39 39 38 39 39 39 38 37 37 37 37 37 37 38 40 42 44 45 45 44
42 42 43 44 45 45 46 46 46 46 46 47 46 46 44 43 42 41 41 41 40 39 38 38 37 36 36 36 36 36 36 34 33 34 34 34 36 38 38 40 41 41 41
41 42 42 43 43 44 44 44 45 44 44 43 42 41 40 39 39 39 39 38 37 37 36 35 35 34 34 35 35 35 34 34 32 33 34 34 34 35 36 37 38 38 39
40 41 41 41 41 41 41 42 42 42 41 40 39 37 37 37 38 38 37 35 34 34 34 33 33 32 32 32 32 33 34 33 33 33 33 32 33 34 33 34 34 35 36
39 39 39 39 39 38 38 39 38 38 38 38 37 36 36 36 36 36 35 33 32 33 33 32 31 31 30 30 30 31 31 31 31 32 32 32 31 31 32 32 33 33 33
37 37 37 36 36 35 36 37 37 37 36 36 35 35 35 34 33 33 31 30 30 30 31 29 28 28 28 28 29 29 29 29 29 29 29 29 28 28 29 30 30 30 30
35 35 34 34 34 34 35 35 35 35 34 33 32 32 31 31 30 29 28 28 28 28 28 27 27 26 26 26 26 26 26 27 27 26 27 27 27 26 26 26 27 28 28
Wind_Direction
269 269 269 269 269 269 269 270 270 270 270 270 271 271 271 271 271 270 270 269 269 269 268 268 268 268 268 268 268 267 266 266 266 265 266 266 267 268 268 269 269 269 272
270 270 270 270 270 270 270 270 270 270 270 271 271 272 272 272 272 271 271 270 269 269 268 268 267 267 267 267 267 267 266 265 265 265 265 265 266 266 266 267 267 268 270
272 271 271 270 270 269 270 271 271 271 271 271 271 271 272 272 272 272 271 271 270 269 268 267 267 267 267 267 266 266 265 265 265 264 264 264 265 266 265 265 266 268 269
273 273 272 272 271 270 271 271 272 272 272 272 271 271 271 272 272 272 272 272 271 270 269 268 267 266 266 266 266 264 264 264 264 264 263 263 264 265 264 265 266 267 267
275 274 272 273 272 272 271 271 272 272 273 273 273 272 272 272 273 273 272 272 272 271 270 269 267 266 265 265 265 263 262 262 262 263 263 262 262 263 264 264 265 265 267
277 276 274 273 274 273 272 272 273 273 274 274 274 273 273 273 273 273 273 272 273 272 271 270 268 266 265 264 264 262 261 260 261 261 261 261 261 261 262 263 264 265 266
278 278 276 275 275 275 274 273 273 274 274 274 274 274 275 275 274 273 273 273 274 273 271 270 269 267 265 263 263 263 262 261 260 260 260 260 260 260 261 262 263 263 264
280 281 280 279 278 277 276 274 274 274 274 275 275 275 275 275 274 273 272 272 273 272 271 270 269 267 265 264 263 263 262 261 260 260 260 260 259 259 260 260 262 262 263
282 282 282 281 280 279 278 277 276 275 275 276 277 277 277 277 275 274 272 272 272 272 271 270 269 268 267 265 263 262 261 260 260 260 259 260 259 258 259 259 260 260 262
283 283 283 283 283 281 280 279 278 277 276 277 277 278 278 278 278 275 273 273 272 272 271 270 270 270 268 267 265 264 262 261 259 259 259 259 258 256 257 258 258 258 261
283 283 283 283 283 283 282 281 281 280 279 278 278 278 279 279 278 277 275 274 273 272 271 272 272 270 269 269 267 265 263 261 258 258 257 258 257 256 256 256 257 258 259
283 283 283 284 285 285 283 283 283 282 281 281 280 280 280 281 279 277 276 276 275 274 274 273 271 270 268 268 268 266 263 261 259 256 255 255 256 256 256 257 257 258 259
284 284 284 284 286 285 284 284 284 284 283 283 283 282 282 281 280 278 277 276 277 278 276 273 271 270 267 267 267 266 264 262 259 257 256 254 254 255 256 258 258 258 260
284 285 285 285 285 285 285 285 285 286 286 285 284 284 283 282 281 279 278 278 279 279 277 273 271 269 267 267 267 265 264 263 261 258 256 255 254 254 255 257 257 258 259
284 285 286 286 285 285 286 286 287 287 287 287 286 285 283 282 281 280 279 279 279 279 276 273 271 269 268 267 268 268 265 263 262 259 257 255 255 254 254 256 257 258 258
283 285 287 287 286 286 287 287 288 289 289 289 287 285 283 282 283 281 280 279 279 279 277 274 273 270 269 267 267 268 266 264 261 259 257 256 255 254 254 255 255 256 257
284 285 287 287 287 288 287 288 289 290 290 289 289 287 285 283 283 282 280 279 278 278 276 274 274 271 269 268 267 268 267 266 262 259 257 256 255 254 254 254 254 256 257
285 286 287 288 289 289 289 290 291 292 290 289 290 289 286 284 284 283 280 278 276 275 274 273 273 270 269 269 268 268 269 267 263 259 256 255 255 254 252 253 255 255 257
286 287 287 289 290 290 291 291 292 292 292 291 290 290 289 286 283 282 280 277 275 274 273 272 271 269 268 268 267 268 268 265 263 259 257 255 255 252 252 253 254 256 257
288 288 289 290 292 292 292 292 292 293 293 293 293 291 290 286 282 281 279 276 274 273 273 271 269 268 267 266 266 266 265 263 260 258 257 255 253 252 252 254 255 256 256
289 290 291 292 292 292 293 293 294 294 295 296 294 291 290 287 283 281 279 277 274 271 271 269 268 267 266 266 265 264 263 260 258 257 255 255 254 253 254 255 255 257 257
291 292 293 293 293 293 294 295 296 296 296 297 295 293 291 289 285 282 280 278 274 271 269 268 266 266 266 265 264 262 260 258 256 255 254 254 254 253 255 256 256 256 256
292 293 294 294 294 294 295 297 297 297 298 299 298 296 293 291 287 282 278 277 273 270 269 268 266 264 264 262 262 259 258 258 257 254 254 254 255 254 255 256 256 256 257
293 294 295 295 296 296 297 298 298 299 301 301 299 298 295 293 289 284 278 274 273 270 267 267 266 262 261 260 259 257 255 255 254 253 254 254 253 254 255 256 257 259 259
293 295 296 295 296 297 299 300 300 301 302 302 300 298 296 294 291 285 278 274 271 269 265 264 264 261 259 256 256 255 252 252 252 252 251 252 252 254 255 256 257 259 259
294 295 295 297 298 299 300 301 302 303 304 303 302 300 298 296 293 288 282 275 271 266 262 262 261 259 257 254 253 250 247 247 250 250 249 248 249 252 253 254 257 258 257
Height
5783 5783 5783 5782 5782 5782 5782 5781 5781 5781 5781 5780 5780 5779 5779 5778 5778 5778 5778 5778 5778 5778 5778 5778 5777 5777 5777 5777 5777 5777 5777 5777 5777 5778 5778 5778 5778 5778 5778 5778 5778 5778 5778
5774 5773 5773 5773 5772 5772 5772 5771 5771 5771 5770 5770 5770 5769 5768 5767 5767 5767 5766 5766 5766 5766 5767 5767 5767 5766 5766 5767 5767 5767 5767 5768 5768 5768 5769 5769 5769 5769 5769 5769 5770 5770 5770
5764 5763 5763 5762 5762 5761 5761 5760 5760 5760 5759 5759 5759 5758 5757 5756 5756 5755 5755 5754 5754 5754 5754 5754 5755 5755 5755 5755 5756 5756 5757 5757 5758 5758 5759 5760 5760 5760 5760 5760 5761 5761 5761
5755 5754 5753 5752 5751 5750 5750 5749 5749 5748 5747 5747 5747 5746 5745 5744 5743 5743 5742 5741 5741 5741 5741 5741 5742 5742 5742 5743 5743 5744 5745 5746 5747 5747 5748 5749 5750 5750 5751 5751 5752 5752 5752
5745 5743 5742 5741 5739 5738 5738 5737 5737 5736 5735 5735 5734 5733 5732 5731 5730 5730 5729 5728 5727 5727 5727 5727 5728 5728 5729 5730 5730 5731 5732 5733 5735 5736 5737 5738 5739 5740 5740 5741 5742 5742 5742
5734 5732 5730 5729 5727 5726 5725 5724 5724 5723 5723 5722 5721 5720 5719 5718 5717 5716 5715 5714 5713 5712 5712 5712 5713 5714 5714 5715 5716 5717 5719 5720 5722 5723 5724 5726 5727 5728 5730 5730 5731 5732 5732
5722 5720 5718 5716 5714 5713 5711 5711 5710 5710 5709 5708 5708 5707 5707 5705 5703 5702 5701 5699 5699 5698 5697 5697 5697 5698 5699 5700 5701 5703 5705 5706 5708 5710 5711 5713 5714 5716 5718 5719 5720 5721 5722
5711 5708 5705 5703 5701 5699 5698 5698 5697 5697 5696 5695 5694 5693 5693 5693 5691 5688 5687 5686 5684 5683 5683 5682 5682 5683 5684 5684 5686 5688 5689 5691 5693 5695 5697 5699 5701 5703 5705 5706 5708 5709 5710
5700 5697 5694 5691 5689 5688 5686 5685 5684 5684 5683 5682 5679 5678 5677 5677 5677 5676 5673 5672 5670 5669 5668 5668 5668 5668 5668 5669 5670 5672 5674 5675 5677 5679 5682 5684 5686 5689 5691 5693 5695 5696 5698
5689 5686 5683 5681 5678 5676 5674 5673 5671 5670 5669 5668 5666 5664 5663 5661 5659 5660 5660 5657 5655 5654 5653 5652 5652 5652 5651 5652 5653 5655 5657 5659 5661 5663 5666 5668 5671 5674 5677 5679 5681 5683 5685
5679 5676 5673 5670 5667 5665 5663 5661 5659 5658 5656 5655 5653 5651 5649 5646 5644 5643 5644 5643 5641 5639 5637 5636 5636 5636 5636 5636 5637 5638 5639 5641 5644 5647 5650 5653 5656 5659 5662 5664 5667 5669 5671
5668 5665 5661 5658 5656 5653 5651 5649 5647 5645 5643 5641 5639 5637 5635 5632 5629 5627 5627 5627 5625 5624 5622 5620 5619 5619 5619 5619 5620 5621 5622 5624 5627 5630 5633 5637 5640 5644 5647 5649 5652 5655 5657
5657 5653 5650 5647 5644 5642 5639 5637 5635 5633 5630 5628 5625 5623 5620 5617 5614 5612 5610 5609 5609 5609 5606 5604 5603 5602 5602 5602 5603 5604 5605 5607 5609 5612 5616 5620 5624 5628 5631 5634 5637 5640 5643
5646 5642 5639 5636 5633 5630 5628 5625 5622 5620 5617 5614 5611 5608 5605 5602 5600 5596 5594 5592 5592 5592 5591 5589 5587 5586 5586 5586 5587 5587 5589 5591 5592 5595 5599 5603 5607 5612 5616 5619 5622 5625 5628
5635 5631 5628 5624 5621 5618 5615 5612 5609 5607 5603 5600 5597 5593 5590 5588 5585 5582 5579 5577 5574 5574 5575 5575 5573 5571 5570 5571 5571 5571 5573 5575 5576 5579 5582 5586 5591 5595 5599 5603 5606 5609 5612
5623 5620 5616 5612 5609 5606 5602 5599 5596 5593 5590 5586 5582 5579 5576 5573 5570 5568 5565 5562 5559 5557 5558 5560 5559 5557 5556 5556 5557 5557 5558 5560 5561 5564 5567 5571 5575 5580 5584 5587 5590 5593 5596
5611 5608 5604 5601 5597 5594 5590 5587 5584 5580 5576 5572 5568 5565 5562 5559 5556 5553 5551 5548 5546 5544 5543 5545 5545 5544 5543 5543 5543 5544 5545 5546 5548 5550 5553 5557 5561 5565 5569 5572 5575 5578 5582
5599 5596 5593 5589 5586 5582 5578 5575 5571 5567 5563 5559 5555 5551 5548 5545 5542 5539 5537 5535 5533 5531 5530 5531 5532 5531 5531 5530 5531 5532 5532 5533 5535 5537 5541 5544 5548 5552 5555 5558 5562 5565 5568
5588 5585 5581 5578 5574 5570 5566 5563 5559 5554 5550 5546 5542 5538 5534 5530 5528 5526 5523 5521 5520 5519 5518 5518 5519 5519 5519 5519 5519 5520 5521 5522 5524 5526 5529 5533 5536 5539 5543 5546 5549 5552 5555
5577 5574 5570 5567 5563 5559 5555 5551 5546 5542 5538 5533 5529 5524 5520 5517 5515 5513 5511 5509 5507 5507 5506 5506 5507 5507 5508 5508 5509 5510 5511 5512 5514 5516 5519 5522 5525 5528 5531 5535 5538 5541 5543
5567 5563 5560 5556 5552 5548 5544 5539 5535 5530 5526 5522 5517 5512 5508 5505 5502 5500 5498 5497 5496 5495 5495 5496 5496 5497 5498 5498 5499 5500 5502 5503 5505 5507 5510 5513 5516 5519 5521 5524 5527 5529 5532
5556 5553 5549 5545 5541 5537 5533 5528 5523 5518 5514 5510 5505 5501 5497 5493 5490 5488 5487 5485 5485 5485 5486 5486 5487 5488 5489 5489 5490 5491 5492 5494 5497 5500 5501 5504 5507 5509 5512 5515 5517 5519 5521
5546 5543 5539 5535 5531 5527 5523 5518 5513 5508 5503 5499 5494 5491 5487 5484 5480 5478 5477 5476 5476 5476 5476 5476 5478 5479 5480 5481 5481 5483 5484 5486 5489 5491 5493 5496 5498 5501 5503 5505 5507 5509 5512
5537 5533 5530 5526 5522 5518 5513 5508 5503 5499 5494 5490 5485 5481 5477 5474 5470 5467 5466 5466 5466 5467 5467 5467 5468 5470 5471 5472 5472 5474 5476 5478 5481 5483 5485 5488 5490 5492 5495 5497 5499 5501 5503
5528 5524 5521 5517 5513 5509 5505 5500 5495 5490 5486 5481 5477 5472 5468 5464 5461 5458 5457 5457 5458 5458 5458 5459 5460 5461 5462 5463 5464 5466 5468 5470 5473 5475 5477 5480 5482 5484 5487 5489 5491 5493 5495
5519 5515 5512 5508 5505 5501 5497 5492 5487 5482 5478 5474 5469 5465 5460 5456 5453 5450 5448 5448 5449 5450 5450 5451 5452 5453 5454 5456 5457 5459 5461 5464 5466 5469 5471 5473 5476 5478 5481 5483 5485 5486 5488